x

Isle Of Shoals, Nh (iosn3) Weather Station

3:00 - Thu 23rd Mar 2017 All times are EDT. -4 hours from GMT.

  • Wind
    22mph, 25mph gusts
  • Air Temp 18°f
  • Sea Pressure 1026.4mb
  • Isle Of Shoals, Nh
  • Isle Of Shoals, Nh

More Historic Weather Station data

Upgrade to MSW Pro to gain access to the past 30 days of data for over 8000 Wavebouys and Weather Stations around the globe.

Join Pro

Comparision Forecast

View Surf forecast
   
jeu. 03/23 3:00 22 25 mph 1026.4mb 18f
2:00 24 28 mph 1026.1mb 18f
1:00 30 37 mph 1025.5mb 18f
12:00 29 34 mph 1024.7mb 18f
mer. 03/22 11:00 30 34 mph 1024.2mb 18f
10:00 33 39 mph 1023mb 18f
9:00 33 38 mph 1021.9mb 18f
8:00 39 44 mph 1020.3mb 18f
7:00 40 44 mph 1019mb 20f
6:00 37 44 mph 1017.1mb 22f
5:00 39 46 mph 1015.9mb 23f
4:00 44 54 mph 1014.8mb 22f
3:00 46 52 mph 1013.1mb 23f
2:00 40 46 mph 1013.2mb 24f
1:00 40 45 mph 1012.1mb 24f
12:00 41 46 mph 1011.1mb 26f
11:00 36 43 mph 1010.5mb 28f
10:00 36 39 mph 1009.2mb 30f
9:00 38 45 mph 1007.6mb 33f
8:00 32 36 mph 1006.8mb 36f
7:00 25 29 mph 1005.5mb 38f
6:00 25 28 mph 1005.1mb 38f
5:00 20 22 mph 1005.5mb 39f
4:00 15 16 mph 1005.7mb 40f
3:00 10 13 mph 1006.6mb 39f
2:00 11 13 mph 1007.5mb 40f
1:00 16
mph
1007.6mb 41f
12:00 16 17 mph 1008mb 41f
mar. 03/21 11:00 18
mph
1008.1mb 44f
10:00 14
mph
1008.1mb 44f
9:00 15
mph
1008mb 43f
8:00 13 15 mph 1007.8mb 41f
7:00 16 17 mph 1007.4mb 41f
6:00 17 18 mph 1007.3mb 42f
5:00 16
mph
1007.6mb 43f
4:00 17 18 mph 1008mb 43f
3:00 14 15 mph 1008.5mb 42f
2:00 14
mph
1009.3mb 43f
1:00 7
mph
1010.2mb 42f
12:00 3
mph
1010.8mb 42f
11:00  -  1 mph 1011.2mb 45f
10:00 2
mph
1011.4mb 41f
9:00 6
mph
1011.4mb 39f
8:00 6
mph
1010.9mb 38f
7:00 7
mph
1010.7mb 38f
6:00 5 6 mph 1010.8mb 38f
5:00 9 10 mph 1010.6mb 39f
4:00 13 14 mph 1010.5mb 39f
3:00 11 13 mph 1010.9mb 39f
2:00 9
mph
1011.6mb 39f
1:00 13 14 mph 1011.8mb 40f
12:00 11 13 mph 1012.4mb 40f
lun. 03/20 11:00 5
mph
1012.3mb 41f
10:00 8
mph
1012.4mb 45f
9:00 8 10 mph 1012.8mb 43f
8:00 1 2 mph 1013.1mb 44f
7:00 2
mph
1013mb 44f
6:00  -  1 mph 1013mb 47f
5:00 5 6 mph 1013.3mb 45f
4:00 10 13 mph 1013.5mb 44f
3:00 10 13 mph 1013.9mb 43f
2:00 14 16 mph 1014.6mb 42f
1:00 14 16 mph 1015.5mb 42f
12:00 18 21 mph 1016.4mb 41f
11:00 22 25 mph 1017.3mb 39f
10:00 25 29 mph 1017.5mb 38f
9:00 28 31 mph 1017.3mb 37f
8:00 29 32 mph 1017mb 37f
7:00 20 23 mph 1017.2mb 36f
6:00 21 22 mph 1017mb 34f
5:00 20 22 mph 1016.7mb 35f
4:00 24 28 mph 1016.5mb 37f
3:00 20 21 mph 1017mb 35f
2:00 22 24 mph 1017.6mb 37f
1:00 17 20 mph 1017.9mb 36f
12:00 23 26 mph 1018.1mb 39f
dim. 03/19 11:00 22 24 mph 1018.8mb 39f
10:00 18 21 mph 1019.6mb 38f
9:00 14 16 mph 1020.2mb 36f
8:00 17 20 mph 1020.5mb 36f
7:00 20 22 mph 1020.3mb 37f
6:00 20 22 mph 1019.9mb 37f
5:00 23 28 mph 1020mb 36f
4:00 24 28 mph 1020.7mb 36f
3:00 24 28 mph 1021.7mb 35f
2:00 26 29 mph 1022.6mb 35f
1:00 31 34 mph 1023.4mb 34f
12:00 31 34 mph 1023.7mb 34f
11:00 32 34 mph 1024mb 33f
10:00 28 30 mph 1024.6mb 32f
9:00 26 29 mph 1024.7mb 32f